Weather History for Guatemala Aeropuertola Aurora, Guatemala

Change the Weather History Date:

Saturday, January 25, 2014

  Actual Average Record
Temperature  
Mean Temperature 63 °F -  
Max Temperature 71 °F 74 °F - ()
Min Temperature 55 °F 55 °F - ()
Degree Days  
Heating Degree Days 2    
Growing Degree Days 13 (Base 50)    
Moisture  
Dew Point 53 °F    
Average Humidity 70    
Maximum Humidity 88    
Minimum Humidity 46    
Precipitation  
Precipitation 0.00 in - - ()
Sea Level Pressure  
Sea Level Pressure 30.33 in    
Wind  
Wind Speed 15 mph ()    
Max Wind Speed 23 mph    
Max Gust Speed -    
Visibility 6.2 miles    
Events      
T = Trace of Precipitation, MM = Missing Value Source: Averaged Metar Reports

Daily Weather History Graph

Daily Weather History Graph

Search for Another Location

Airport:

Trip Planner

Search our weather history database for the weather conditions in past years. The results will help you decide how hot, cold, wet, or windy it might be!

Date:

Astronomy

Jan. 25, 2014 Rise Set
Actual Time 6:31 AM CST 5:57 PM CST
Civil Twilight 6:08 AM CST 6:20 PM CST
Nautical Twilight 5:42 AM CST 6:46 PM CST
Astronomical Twilight 5:16 AM CST 7:12 PM CST
Moon 1:07 AM CST 12:56 PM CST
Length of Visible Light 12h 11m
Length of Day
11h 26m
Waning Crescent, 34% of the Moon is Illuminated
Jan 25
Waning Crescent
Jan 30
New
Feb 6
First Quarter
Feb 14
Full
Feb 22
Last Quarter

Hourly Weather History & Observations

Time (CST) Temp. Dew Point Humidity Pressure Visibility Wind Dir Wind Speed Gust Speed Precip Events Conditions
12:00 AM 60.8 °F 53.6 °F 77% 30.36 in 6.2 mi North 18.4 mph - N/A   Mostly Cloudy
1:00 AM 60.8 °F 53.6 °F 77% 30.36 in 6.2 mi North 18.4 mph - N/A   Mostly Cloudy
2:00 AM 59.0 °F 53.6 °F 82% 30.33 in 6.2 mi North 20.7 mph - N/A   Scattered Clouds
3:00 AM 59.0 °F 53.6 °F 82% 30.33 in 6.2 mi North 13.8 mph - N/A   Scattered Clouds
4:00 AM 59.0 °F 53.6 °F 82% 30.30 in 6.2 mi North 13.8 mph - N/A   Scattered Clouds
5:00 AM 60.8 °F 53.6 °F 77% 30.33 in 6.2 mi North 13.8 mph - N/A   Mostly Cloudy
6:00 AM 60.8 °F 53.6 °F 77% 30.36 in 6.2 mi North 16.1 mph - N/A   Scattered Clouds
7:00 AM 59.0 °F 51.8 °F 77% 30.36 in 6.2 mi North 13.8 mph - N/A   Scattered Clouds
8:00 AM 59.0 °F 51.8 °F 77% 30.36 in 6.2 mi North 16.1 mph - N/A   Partly Cloudy
9:00 AM 62.6 °F 51.8 °F 68% 30.39 in 6.2 mi North 18.4 mph - N/A   Partly Cloudy
10:00 AM 68.0 °F 51.8 °F 56% 30.39 in 6.2 mi North 20.7 mph - N/A   Scattered Clouds
11:00 AM 68.0 °F 53.6 °F 60% 30.36 in 6.2 mi North 23.0 mph - N/A   Scattered Clouds
12:00 PM 69 °F 53 °F 46% 30.07 in 25 mi North 23.0 mph - -   Mostly Cloudy
12:00 PM 68.0 °F 53.6 °F 60% 30.36 in 6.2 mi North 23.0 mph - N/A   Mostly Cloudy
1:00 PM 71.6 °F 53.6 °F 53% 30.33 in 6.2 mi North 20.7 mph - N/A   Mostly Cloudy
2:00 PM 68.0 °F 53.6 °F 60% 30.30 in 6.2 mi North 13.8 mph - N/A   Scattered Clouds
3:00 PM 69.8 °F 55.4 °F 60% 30.27 in 6.2 mi North 16.1 mph - N/A   Scattered Clouds
4:00 PM 68.0 °F 53.6 °F 60% 30.27 in 6.2 mi North 16.1 mph - N/A   Scattered Clouds
5:00 PM 68.0 °F 53.6 °F 60% 30.30 in 6.2 mi North 13.8 mph - N/A   Scattered Clouds
6:00 PM 64.4 °F 51.8 °F 64% 30.30 in 6.2 mi NNE 13.8 mph - N/A   Mostly Cloudy
7:00 PM 60.8 °F 51.8 °F 72% 30.33 in 6.2 mi NNE 13.8 mph - N/A   Mostly Cloudy
8:00 PM 60.8 °F 51.8 °F 72% 30.36 in 6.2 mi NNE 13.8 mph - N/A   Mostly Cloudy
9:00 PM 59.0 °F 51.8 °F 77% 30.36 in 6.2 mi NNE 13.8 mph - N/A   Partly Cloudy
10:00 PM 59.0 °F 53.6 °F 82% 30.39 in 6.2 mi North 11.5 mph - N/A   Partly Cloudy
11:00 PM 57.2 °F 53.6 °F 88% 30.36 in 6.2 mi North 11.5 mph - N/A   Partly Cloudy